#timestamp,LO_Frequency,Hit 
1499972415.1,286046984.7,N
1499972435.9,286046984.0,N
1499972455.7,286046982.8,N
1499972475.5,286046987.3,N
1499972495.4,286046997.0,N
1499972515.2,286046995.5,N
1499972535.0,286046993.0,N
1499972535.9,286046993.0,N
1499972555.8,286046988.7,N
1499972575.6,286046988.7,N
1499972595.4,286046987.4,N
1499972615.3,286046985.5,N
1499972635.1,286046989.5,N
1499972636.0,286046989.5,N
1499972655.8,286046989.5,N
1499972675.7,286046988.9,N
1499972695.5,286046991.5,N
1499972715.3,286046989.5,N
1499972735.2,286046989.3,N
1499972755.9,286046989.5,N
1499972775.7,286046988.2,N
1499972795.5,286046988.4,N
1499972815.4,286046986.5,N
1499972835.2,286046989.3,N
1499972855.0,286046990.5,N
1499972855.9,286046990.5,N
1499972875.8,286046990.5,N
1499972895.6,286046994.3,N
1499972915.4,286046992.1,N
1499972935.3,286046994.8,N
1499972955.1,286046993.8,N
1499972956.0,286046993.8,N
1499972975.8,286046995.8,N
1499972995.7,286046995.6,N
1499973015.5,286046996.2,N
1499973035.3,286046995.7,N
1499973055.2,286046991.7,N
1499973075.9,286046993.3,N
1499973095.7,286046996.0,N
1499973115.6,286046995.6,N
1499973135.4,286046995.8,N
1499973155.2,286046993.3,N
1499973175.0,286046992.8,N
1499973176.0,286046992.8,N
1499973195.8,286046992.1,N
1499973215.6,286046995.5,N
1499973235.4,286046995.4,N
1499973255.3,286046993.3,N
1499973275.1,286046992.3,N
1499973295.8,286046992.6,N
1499973315.7,286046995.1,N
1499973335.5,286046994.9,N
1499973355.3,286046994.6,N
1499973375.2,286046994.5,N
1499973395.9,286046994.1,N
1499973415.7,286046996.4,N
1499973435.6,286046995.0,N
1499973455.4,286046997.5,N
1499973475.2,286046995.7,N
1499973495.0,286046995.6,N
1499973495.9,286046995.6,N
1499973515.8,286046996.0,N
1499973535.6,286046995.8,N
1499973555.4,286046997.7,N
1499973575.3,286046995.1,N
1499973595.1,286046997.9,N
1499973615.8,286046997.9,N
1499973635.7,286046997.0,N
1499973655.5,286046995.4,N
1499973675.3,286046997.6,N
1499973695.2,286046999.0,N
1499973715.9,286046998.3,N
1499973735.7,286047001.1,N
1499973755.6,286046999.5,N
1499973775.4,286046999.1,N
1499973795.2,286046996.5,N
1499973815.0,286046997.2,N
1499973816.0,286046997.2,N
1499973835.8,286046997.0,N
1499973855.6,286046997.6,N
1499973875.4,286046995.2,N
1499973895.3,286046998.7,N
1499973915.1,286046999.8,N
1499973935.8,286046999.7,N
1499973955.7,286046998.9,N
1499973975.5,286047002.8,N
1499973995.3,286047002.2,N
1499974015.2,286047004.2,N
1499974035.9,286047000.1,N
1499974055.7,286046998.6,N
1499974075.6,286046998.8,N
1499974095.4,286046997.0,N
1499974115.2,286047000.5,N
1499974135.1,286047002.1,N
1499974136.0,286047002.1,N
1499974155.8,286047004.4,N
1499974175.6,286047002.9,N
1499974195.5,286047004.4,N
1499974215.3,286047004.3,N
1499974235.1,286047005.3,N
1499974255.9,286047007.2,N
1499974275.7,286047005.1,N
1499974295.5,286047004.0,N
1499974315.3,286047002.2,N
1499974335.2,286047001.5,N
1499974355.0,286047002.9,N
1499974355.9,286047002.9,N
1499974375.7,286047004.4,N
1499974395.6,286047000.1,N
1499974415.4,286047002.8,N
1499974435.2,286047003.4,N
1499974455.1,286047003.0,N
1499974456.0,286047003.0,N
1499974475.8,286047003.5,N
1499974495.6,286047003.7,N
1499974515.5,286047003.0,N
1499974535.3,286047003.0,N
1499974555.1,286047003.0,N
1499974575.9,286047002.9,N
1499974595.7,286047007.4,N
1499974615.5,286047007.6,N
1499974635.4,286047006.7,N
1499974655.2,286047008.0,N
1499974675.0,286047009.5,N
1499974675.9,286047009.5,N
1499974695.8,286047008.4,N
1499974715.6,286047006.6,N
1499974735.4,286047008.4,N
1499974755.2,286047007.6,N
1499974775.1,286047007.6,N
1499974776.0,286047007.6,N
1499974795.8,286047008.7,N
1499974815.6,286047008.7,N
1499974835.5,286047006.4,N
1499974855.3,286047008.6,N
1499974875.1,286047008.0,N
1499974895.9,286047010.7,N
1499974915.7,286047008.8,N
1499974935.5,286047008.9,N
1499974955.4,286047008.4,N
1499974975.2,286047010.5,N
1499974995.0,286047008.7,N
1499974995.9,286047008.7,N
1499975015.8,286047010.4,N
1499975035.6,286047012.2,N
1499975055.4,286047009.5,N
1499975075.3,286047010.0,N
1499975095.1,286047009.7,N
1499975096.0,286047009.7,N
1499975115.8,286047009.7,N
1499975135.7,286047012.7,N
1499975155.5,286047013.0,N
1499975175.3,286047011.4,N
1499975195.2,286047013.9,N
1499975215.9,286047013.2,N
1499975235.7,286047013.4,N
1499975255.5,286047013.8,N
1499975275.4,286047015.5,N
1499975295.2,286047013.5,N
1499975315.0,286047012.5,N
1499975315.9,286047012.5,N
1499975335.8,286047014.8,N
1499975355.6,286047012.7,N
1499975375.4,286047014.3,N
1499975395.3,286047016.6,N
1499975415.1,286047016.4,N
1499975416.0,286047016.4,N
1499975435.8,286047012.6,N
1499975455.7,286047017.1,N
1499975475.5,286047016.3,N
1499975495.3,286047017.8,N
1499975515.2,286047016.0,N
1499975535.9,286047018.5,N
1499975555.7,286047019.1,N
1499975575.6,286047019.4,N
1499975595.4,286047017.3,N
1499975615.2,286047020.0,N
1499975635.1,286047017.4,N
1499975636.0,286047017.4,N
1499975655.8,286047017.8,N
1499975675.6,286047015.7,N
1499975695.4,286047018.2,N
1499975715.3,286047020.4,N
1499975735.1,286047020.4,N
1499975755.8,286047019.5,N
1499975775.7,286047019.9,N
1499975795.5,286047020.2,N
1499975815.3,286047020.4,N
1499975835.2,286047021.8,N
1499975855.9,286047020.9,N
1499975875.7,286047019.3,N
1499975895.6,286047020.2,N
1499975915.4,286047019.7,N
1499975935.2,286047021.7,N
1499975955.0,286047019.7,N
1499975956.0,286047019.7,N
1499975975.8,286047019.8,N
1499975995.6,286047021.3,N
